Guthrie, OK

12:19 PM CDT on August 31, 2016 (GMT -0500)
Guthrie Municipal

Weather History for KGOK - December, 2013

Change the Weather History Date:

Monday, December 30, 2013

  Actual Average Record
Temperature  
Mean Temperature 24 °F -  
Max Temperature 39 °F 46 °F 76 °F (1951)
Min Temperature 10 °F 26 °F -2 °F (1983)
Degree Days  
Heating Degree Days 40    
Moisture  
Dew Point 11 °F    
Average Humidity 58    
Maximum Humidity 84    
Minimum Humidity 35    
Precipitation  
Precipitation 0.00 in - - ()
Sea Level Pressure  
Sea Level Pressure 30.34 in    
Wind  
Wind Speed 2 mph (SSW)    
Max Wind Speed 9 mph    
Max Gust Speed -    
Visibility 10 miles    
Events      
Averages and records for this station are not official NWS values.
T = Trace of Precipitation, MM = Missing Value Source: NWS Daily Summary

Daily Weather History Graph

Daily Weather History Graph

Search for Another Location

Airport or City:

Trip Planner

Search our weather history database for the weather conditions in past years. The results will help you decide how hot, cold, wet, or windy it might be!

Date:

Astronomy

Dec. 30, 2013 Rise Set
Actual Time 7:39 AM CST 5:25 PM CST
Civil Twilight 7:11 AM CST 5:53 PM CST
Nautical Twilight 6:39 AM CST 6:25 PM CST
Astronomical Twilight 6:07 AM CST 6:56 PM CST
Moon 5:32 AM CST (12/30) 3:58 PM CST (12/30)
Length of Visible Light 10h 42m
Length of Day
9h 45m
Waning Crescent, 4% of the Moon is Illuminated
Dec 30
Waning Crescent
Jan 1
New
Jan 7
First Quarter
Jan 15
Full
Jan 23
Last Quarter

Hourly Weather History & Observations

Time (CST) Temp. Windchill Dew Point Humidity Pressure Visibility Wind Dir Wind Speed Gust Speed Precip Events Conditions
12:53 AM 17.1 °F - 7.0 °F 65% 30.34 in 10.0 mi Calm Calm - N/A   Clear
1:53 AM 16.0 °F - 8.1 °F 71% 30.34 in 10.0 mi Calm Calm - N/A   Clear
2:53 AM 16.0 °F - 7.0 °F 68% 30.35 in 10.0 mi Calm Calm - N/A   Clear
3:53 AM 15.1 °F - 7.0 °F 70% 30.33 in 10.0 mi Calm Calm - N/A   Clear
4:53 AM 15.1 °F - 7.0 °F 70% 30.32 in 10.0 mi Calm Calm - N/A   Clear
5:53 AM 10.9 °F - 7.0 °F 84% 30.32 in 10.0 mi Calm Calm - N/A   Clear
6:53 AM 12.9 °F - 7.0 °F 77% 30.32 in 10.0 mi North - - N/A   Clear
7:53 AM 10.9 °F 4.7 °F 6.1 °F 81% 30.33 in 10.0 mi SE 3.5 mph - N/A   Clear
8:53 AM 17.1 °F 11.7 °F 7.0 °F 65% 30.33 in 10.0 mi SE 3.5 mph - N/A   Clear
9:53 AM 21.0 °F 14.6 °F 7.0 °F 55% 30.39 in 10.0 mi WNW 4.6 mph - N/A   Clear
10:53 AM 25.0 °F - 5.0 °F 43% 30.35 in 10.0 mi Calm Calm - N/A   Clear
11:53 AM 28.0 °F 24.2 °F 7.0 °F 41% 30.36 in 10.0 mi NW 3.5 mph - N/A   Clear
12:53 PM 30.9 °F 25.2 °F 9.0 °F 40% 30.30 in 10.0 mi WSW 5.8 mph - N/A   Clear
1:53 PM 35.1 °F 31.0 °F 10.9 °F 37% 30.28 in 10.0 mi WSW 4.6 mph - N/A   Clear
2:53 PM 37.9 °F 31.5 °F 12.0 °F 35% 30.28 in 10.0 mi WSW 9.2 mph - N/A   Clear
3:53 PM 39.0 °F 34.0 °F 14.0 °F 36% 30.29 in 10.0 mi SW 6.9 mph - N/A   Clear
4:53 PM 37.9 °F 34.4 °F 15.1 °F 39% 30.31 in 10.0 mi West 4.6 mph - N/A   Clear
5:53 PM 33.1 °F - 15.1 °F 48% 30.34 in 10.0 mi Calm Calm - N/A   Clear
6:53 PM 28.0 °F 22.8 °F 15.1 °F 58% 30.37 in 9.0 mi South 4.6 mph - N/A   Clear
7:53 PM 30.0 °F 25.2 °F 15.1 °F 54% 30.39 in 10.0 mi South 4.6 mph - N/A   Clear
8:53 PM 28.0 °F 22.8 °F 17.1 °F 63% 30.40 in 10.0 mi SSE 4.6 mph - N/A   Clear
9:53 PM 30.0 °F 26.5 °F 18.0 °F 61% 30.40 in 10.0 mi SSW 3.5 mph - N/A   Clear
10:53 PM 28.9 °F 22.8 °F 19.0 °F 67% 30.41 in 10.0 mi South 5.8 mph - N/A   Clear
11:53 PM 30.0 °F 25.2 °F 19.9 °F 66% 30.40 in 10.0 mi SSW 4.6 mph - N/A   Clear